Edwards AFB North Base, CA

6:22 AM PST on December 05, 2019 (GMT -0800)
Edwards AFB North Base

Weather History for K9L2 - May, 2019

Change the Weather History Date:

Wednesday, May 8, 2019

  Actual Average (KEDW) Record (KEDW)
Temperature  
Mean Temperature 70 °F -  
Max Temperature 86 °F 78 °F 98 °F (2001)
Min Temperature 53 °F 49 °F 39 °F (2017)
Cooling Degree Days 4    
Growing Degree Days 20 (Base 50)    
Moisture  
Dew Point 44 °F    
Average Humidity 45    
Maximum Humidity 76    
Minimum Humidity 13    
Precipitation  
Precipitation 0.00 in - - ()
Sea Level Pressure  
Sea Level Pressure 29.81 in    
Wind  
Wind Speed 13 mph (South)    
Max Wind Speed 22 mph    
Max Gust Speed 26 mph    
Visibility 8 miles    
Events      
Averages and records for this station are not official NWS values.
T = Trace of Precipitation, MM = Missing Value Source: NWS Daily Summary

Daily Weather History Graph

Daily Weather History Graph

Search for Another Location

Airport or City:

Astronomy

May. 08, 2019 Rise Set
Actual Time 5:53 AM PDT 7:42 PM PDT
Civil Twilight 5:26 AM PDT 8:10 PM PDT
Nautical Twilight 4:53 AM PDT 8:43 PM PDT
Astronomical Twilight 4:17 AM PDT 9:19 PM PDT
Moon 8:58 AM PDT (5/8) 11:43 PM PDT (5/8)
Length of Visible Light 14h 43m
Length of Day
13h 48m
Waxing Crescent, 16% of the Moon is Illuminated
May 8
Waxing Crescent
May 11
First Quarter
May 18
Full
May 26
Last Quarter
Jun 3
New

Hourly Weather History & Observations

Time (PDT) Temp. Dew Point Humidity Pressure Visibility Wind Dir Wind Speed Gust Speed Precip Events Conditions
12:58 AM 56.5 °F 46.8 °F 70% 29.87 in 9.0 mi South 16.1 mph 23.0 mph N/A   Clear
1:58 AM 55.2 °F 46.4 °F 72% 29.87 in 9.0 mi SSW 17.3 mph - N/A   Clear
2:58 AM 54.7 °F 46.2 °F 73% 29.87 in 10.0 mi South 19.6 mph - N/A   Clear
3:58 AM 54.1 °F 46.4 °F 75% 29.88 in 10.0 mi South 16.1 mph - N/A   Clear
4:58 AM 54.0 °F 45.9 °F 74% 29.88 in 10.0 mi South 15.0 mph - N/A   Clear
5:58 AM 53.1 °F 45.7 °F 76% 29.89 in 8.0 mi South 15.0 mph - N/A   Clear
6:58 AM 54.9 °F 46.0 °F 72% 29.90 in 9.0 mi South 12.7 mph - N/A   Clear
7:58 AM 61.0 °F 46.8 °F 59% 29.91 in 9.0 mi South 9.2 mph - N/A   Clear
8:58 AM 67.3 °F 47.1 °F 48% 29.90 in 8.0 mi South 8.1 mph - N/A   Clear
9:58 AM 72.7 °F 45.7 °F 38% 29.88 in 7.0 mi SSE 8.1 mph - N/A   Clear
10:58 AM 76.5 °F 44.1 °F 31% 29.87 in 6.0 mi Calm Calm - N/A   Haze
11:43 AM 78.8 °F 41.0 °F 26% 29.86 in 8.0 mi Calm Calm - N/A   Clear
11:58 AM 78.8 °F 38.5 °F 24% 29.86 in 8.0 mi Calm Calm - N/A   Clear
12:58 PM 82.0 °F 33.4 °F 17% 29.82 in 8.0 mi SSE 4.6 mph - N/A   Clear
1:58 PM 83.7 °F 29.5 °F 14% 29.79 in 8.0 mi SSE 4.6 mph - N/A   Clear
2:58 PM 84.9 °F 29.3 °F 13% 29.75 in 8.0 mi SSE 5.8 mph - N/A   Clear
3:58 PM 84.6 °F 32.2 °F 15% 29.73 in 6.0 mi South 5.8 mph - N/A   Haze
4:28 PM 86.0 °F 39.2 °F 19% 29.72 in 8.0 mi SSW 19.6 mph - N/A   Partly Cloudy
4:43 PM 84.2 °F 42.8 °F 23% 29.73 in 5.0 mi SW 21.9 mph 26.5 mph N/A   Haze
4:58 PM 83.1 °F 43.9 °F 25% 29.73 in 6.0 mi SSW 21.9 mph - N/A   Haze
5:58 PM 77.7 °F 46.6 °F 33% 29.73 in 6.0 mi South 16.1 mph - N/A   Haze
6:07 PM 77.0 °F 46.4 °F 34% 29.73 in 6.0 mi SW 18.4 mph - N/A   Haze
6:58 PM 75.4 °F 46.2 °F 35% 29.73 in 6.0 mi SSW 15.0 mph - N/A   Haze
7:28 PM 69.8 °F 48.2 °F 46% 29.75 in 7.0 mi SW 12.7 mph - N/A   Clear
7:43 PM 68.0 °F 48.2 °F 49% 29.75 in 6.0 mi SSW 16.1 mph - N/A   Haze
7:58 PM 66.4 °F 48.0 °F 52% 29.75 in 7.0 mi South 16.1 mph - N/A   Clear
8:58 PM 61.9 °F 47.5 °F 59% 29.75 in 9.0 mi SSW 16.1 mph 23.0 mph N/A   Clear
9:58 PM 62.4 °F 47.7 °F 58% 29.76 in 10.0 mi SSW 12.7 mph - N/A   Clear
10:58 PM 59.5 °F 47.7 °F 65% 29.80 in 10.0 mi South 16.1 mph - N/A   Clear
11:58 PM 59.0 °F 47.8 °F 66% 29.80 in 10.0 mi South 15.0 mph - N/A   Clear